Location: Cabrera Baja
(40.4089°N, 4.3354°W)
Time: 02:19:28
(UTC+00:00)

Cosmos 2360 - Pass Details

Date: 14 July 2020
Orbit: 844 x 858 km, 70.8° (Epoch: 03 August)

Event Time Altitude Azimuth Distance (km) Brightness Sun altitude
Rises 02:35:40 0° 338° (NNW) 3,439 7.9 -20.7°
Reaches altitude 10° 02:38:09 10° 340° (NNW) 2,499 7.1 -20.5°
Maximum altitude 02:43:54 72° 65° (ENE) 904 4.4 -19.9°
Drops below altitude 10° 02:49:36 10° 150° (SSE) 2,482 6.4 -19.2°
Enters shadow 02:51:27 - 152° (SSE) 3,183 7.0 -19.0°
